GW1682 Weather Reports


time (UTC)temp
C
wind
direction
speed
KPH
gust
KPH
rain 1hr
cm
rain 24hr
cm
rain mn
cm
humidity
%
barometer
mb
20260506130303 24 292 3.2 14.5 0.00 0.00 0.00 39 1015.0
20260506124807 24 302 4.8 14.5 0.00 0.00 0.00 40 1015.1
20260506123306 25 142 3.2 16.1 0.00 0.00 0.00 38 1015.2
20260506120309 25 234 6.4 16.1 0.00 0.00 0.00 37 1015.4
20260506114810 25 228 3.2 11.3 0.00 0.00 0.00 35 1015.5
20260506111822 25 203 4.8 11.3 0.00 0.00 0.00 39 1015.7
20260506104809 24 192 6.4 14.5 0.00 0.00 0.00 42 1015.8
20260506103307 24 203 3.2 8.0 0.00 0.00 0.00 40 1015.7
20260506101811 24 257 1.6 11.3 0.00 0.00 0.00 40 1015.9
20260506094809 23 221 3.2 11.3 0.00 0.00 0.00 42 1015.9
20260506093309 23 243 3.2 11.3 0.00 0.00 0.00 42 1015.9
20260506090308 23 185 3.2 6.4 0.00 0.00 0.00 43 1016.0
20260506084808 23 224 1.6 8.0 0.00 0.00 0.00 45 1015.8
20260506083306 23 217 1.6 6.4 0.00 0.00 0.00 45 1015.8
20260506081812 22 244 1.6 8.0 0.00 0.00 0.00 43 1015.8
20260506080301 22 219 1.6 6.4 0.00 0.00 0.00 45 1015.8
20260506073305 22 245 1.6 6.4 0.00 0.00 0.00 46 1015.5
20260506071806 22 207 1.6 4.8 0.00 0.00 0.00 46 1015.4
20260506061804 20 157 0.0 0.0 0.00 0.00 0.00 44 1015.4
20260506050255 17 20 0.0 0.0 0.00 0.00 0.00 58 1015.0
20260506044757 16 152 0.0 0.0 0.00 0.00 0.00 60 1014.9
20260506043300 15 161 0.0 0.0 0.00 0.00 0.00 62 1014.9
20260506041802 15 148 0.0 0.0 0.00 0.00 0.00 63 1014.9
20260506040254 15 90 0.0 0.0 0.00 0.00 0.00 63 1014.8
20260506034801 15 141 0.0 0.0 0.00 0.00 0.00 63 1014.6
20260506033300 15 131 0.0 0.0 0.00 0.00 0.00 62 1014.5
20260506031755 15 127 0.0 0.0 0.00 0.00 0.00 63 1014.4
20260506030259 15 161 0.0 1.6 0.00 0.00 0.00 63 1014.3
20260506024805 15 166 1.6 3.2 0.00 0.00 0.00 63 1014.3
20260506023258 15 161 0.0 3.2 0.00 0.00 0.00 64 1014.4
20260506021800 15 158 1.6 3.2 0.00 0.00 0.00 64 1014.5
20260506020259 15 142 3.2 3.2 0.00 0.00 0.00 66 1014.5
20260506014801 15 140 3.2 4.8 0.00 0.00 0.00 66 1014.6
20260506013258 16 144 1.6 3.2 0.00 0.00 0.00 66 1014.7
20260506010258 16 151 0.0 3.2 0.00 0.00 0.00 65 1014.6
20260506004759 16 154 3.2 4.8 0.00 0.00 0.00 64 1014.7
20260506001757 16 142 1.6 3.2 0.00 0.00 0.00 64 1014.8
20260506000256 16 145 1.6 4.8 0.00 0.00 0.00 64 1014.8
20260505234756 16 154 1.6 3.2 0.00 0.00 0.00 64 1014.9
20260505233303 16 172 0.0 6.4 0.00 0.00 0.00 64 1014.9
20260505231756 16 155 3.2 4.8 0.00 0.00 0.00 61 1015.1
20260505230253 16 169 1.6 4.8 0.00 0.00 0.00 60 1015.1
20260505224755 16 154 1.6 3.2 0.00 0.00 0.00 59 1015.2
20260505223254 16 220 0.0 4.8 0.00 0.00 0.00 58 1015.3
20260505221757 16 134 3.2 4.8 0.00 0.00 0.00 57 1015.3
20260505220253 16 152 1.6 6.4 0.00 0.00 0.00 58 1015.3
20260505214752 16 166 0.0 4.8 0.00 0.00 0.00 58 1015.2
20260505213254 16 158 0.0 0.0 0.00 0.00 0.00 58 1015.2
20260505210252 17 151 0.0 0.0 0.00 0.00 0.00 56 1015.3
20260505204753 17 172 0.0 3.2 0.00 0.00 0.00 55 1015.2
20260505201745 17 151 0.0 3.2 0.00 0.00 0.00 55 1015.5
20260505200243 17 152 0.0 0.0 0.00 0.00 0.00 57 1015.4
20260505193240 18 144 0.0 3.2 0.00 0.00 0.00 54 1015.4
20260505191742 18 168 0.0 0.0 0.00 0.00 0.00 55 1015.3
20260505183240 19 11 0.0 0.0 0.00 0.00 0.00 51 1015.0
20260505181736 20 3 0.0 0.0 0.00 0.00 0.00 50 1014.8
20260505180234 20 316 0.0 0.0 0.00 0.00 0.00 48 1014.6
20260505173234 21 259 0.0 0.0 0.00 0.00 0.00 44 1014.5
20260505171731 21 264 0.0 3.2 0.00 0.00 0.00 43 1014.4
20260505170237 22 257 0.0 4.8 0.00 0.00 0.00 42 1014.5
20260505164731 22 258 0.0 3.2 0.00 0.00 0.00 40 1014.4
20260505163230 22 251 1.6 8.0 0.00 0.00 0.00 38 1014.5
20260505153231 23 238 1.6 9.7 0.00 0.00 0.00 35 1014.3
20260505151730 23 223 1.6 9.7 0.00 0.00 0.00 34 1014.4
20260505140231 24 125 4.8 8.0 0.00 0.00 0.00 34 1014.5